DW4558 Weather Reports


Display with metric or nautical units.
time (UTC)temp
F
wind
direction
speed
MPH
gust
MPH
rain 1hr
in
rain 24hr
in
rain mn
in
humidity
%
barometer
mb
20260508024510 42 355 0.0 5.0 0.01 0.07 0.07 94 1003.8
20260508023010 42 19 3.0 6.0 0.01 0.07 0.07 94 1003.8
20260508021508 42 360 5.0 10.0 0.02 0.06 0.06 94 1003.7
20260508020012 42 20 3.0 8.0 0.02 0.06 0.06 94 1003.6
20260508014511 42 279 1.0 7.0 0.03 0.06 0.06 94 1003.5
20260508013009 42 287 3.0 9.0 0.03 0.06 0.06 93 1003.5
20260508011508 43 265 10.0 17.0 0.02 0.05 0.05 92 1003.5
20260508010007 43 264 9.0 15.0 0.01 0.04 0.04 91 1003.3
20260508004509 43 252 11.0 21.0 0.00 0.03 0.03 90 1003.2
20260508003106 44 256 11.0 20.0 0.00 0.03 0.03 87 1003.2
20260508001506 44 244 7.0 18.0 0.00 0.03 0.03 86 1002.9
20260508000006 45 237 10.0 18.0 0.00 0.03 0.03 85 1002.9
20260507234505 45 263 10.0 18.0 0.00 0.04 0.03 85 1002.7
20260507233004 45 267 12.0 21.0 0.00 0.04 0.03 84 1002.6
20260507231504 45 269 8.0 17.0 0.00 0.04 0.03 84 1002.5
20260507230003 46 252 12.0 17.0 0.00 0.04 0.03 85 1002.5
20260507224505 46 274 8.0 15.0 0.00 0.05 0.03 85 1002.5
20260507223002 46 273 8.0 16.0 0.00 0.05 0.03 84 1002.5
20260507221502 46 273 7.0 18.0 0.00 0.05 0.03 85 1002.5
20260507220001 45 243 7.0 14.0 0.00 0.05 0.03 88 1002.5
20260507214500 45 240 5.0 11.0 0.00 0.06 0.03 89 1002.4
20260507213101 44 240 8.0 17.0 0.00 0.06 0.03 87 1002.5
20260507211601 45 234 14.0 30.0 0.00 0.06 0.03 83 1002.8
20260507204559 46 266 11.0 20.0 0.00 0.06 0.03 88 1002.3
20260507203059 46 270 9.0 15.0 0.00 0.06 0.03 88 1002.2
20260507201609 46 240 10.0 16.0 0.01 0.06 0.03 90 1002.1
20260507200105 45 254 9.0 19.0 0.01 0.06 0.03 90 1002.2
20260507194557 45 250 12.0 22.0 0.01 0.08 0.03 91 1002.2
20260507193057 45 242 12.0 26.0 0.01 0.08 0.03 92 1002.4
20260507191556 45 241 16.0 26.0 0.02 0.07 0.02 92 1002.4
20260507190056 45 271 13.0 21.0 0.02 0.07 0.02 92 1002.5
20260507184559 45 265 11.0 24.0 0.02 0.14 0.02 92 1002.6
20260507183055 45 270 14.0 27.0 0.02 0.14 0.02 90 1002.6
20260507181554 46 246 13.0 32.0 0.00 0.12 0.00 86 1002.6
20260507180053 50 261 19.0 31.0 0.00 0.12 0.00 78 1002.4
20260507174602 51 242 21.0 34.0 0.00 0.19 0.00 75 1002.2
20260507173052 51 267 12.0 26.0 0.00 0.19 0.00 75 1002.2
20260507171601 52 237 16.0 30.0 0.00 0.19 0.00 77 1002.2
20260507170051 52 263 13.0 26.0 0.00 0.19 0.00 73 1002.3
20260507164547 51 257 18.0 28.0 0.00 0.28 0.00 79 1002.3
20260507163044 51 239 16.0 26.0 0.00 0.28 0.00 79 1002.5
20260507161540 49 292 18.0 29.0 0.00 0.28 0.00 82 1002.8
20260507160041 49 256 24.0 33.0 0.00 0.28 0.00 81 1003.0
20260507154537 49 240 21.0 32.0 0.00 0.39 0.00 84 1003.3
20260507153032 48 248 22.0 32.0 0.00 0.39 0.00 86 1003.4
20260507151531 47 248 17.0 24.0 0.00 0.39 0.00 87 1003.5
20260507150027 47 217 12.0 18.0 0.00 0.39 0.00 88 1003.5
20260507144529 46 249 12.0 22.0 0.00 0.46 0.00 89 1003.6
20260507143023 46 261 12.0 22.0 0.00 0.46 0.00 90 1003.6
20260507141523 46 279 10.0 21.0 0.00 0.46 0.00 90 1003.6
20260507140021 46 239 8.0 19.0 0.00 0.46 0.00 91 1003.7
20260507134521 45 267 16.0 25.0 0.00 0.52 0.00 91 1003.7
20260507133021 46 271 15.0 26.0 0.00 0.52 0.00 91 1003.7
20260507131520 45 259 14.0 24.0 0.00 0.52 0.00 91 1003.6
20260507130019 46 213 12.0 18.0 0.00 0.52 0.00 92 1003.5
20260507124516 45 286 13.0 22.0 0.00 0.55 0.00 92 1003.8
20260507123012 44 292 10.0 19.0 0.00 0.55 0.00 92 1003.9
20260507121511 44 252 12.0 21.0 0.00 0.55 0.00 92 1003.7
20260507120009 44 249 12.0 21.0 0.00 0.55 0.00 93 1003.7
20260507114507 44 250 10.0 24.0 0.00 0.55 0.00 93 1003.6
20260507113012 44 250 11.0 22.0 0.00 0.55 0.00 94 1003.8
20260507111506 43 252 11.0 17.0 0.00 0.55 0.00 94 1003.8
20260507110003 43 211 9.0 15.0 0.00 0.55 0.00 94 1003.7
20260507104611 42 257 9.0 14.0 0.00 0.55 0.00 94 1003.7
20260507103113 42 235 7.0 11.0 0.00 0.55 0.00 94 1003.7
20260507101557 41 251 6.0 11.0 0.00 0.55 0.00 94 1003.7
20260507100056 41 273 5.0 12.0 0.00 0.55 0.00 95 1003.5
20260507094554 41 268 5.0 14.0 0.00 0.55 0.00 95 1003.4
20260507093058 40 203 6.0 16.0 0.00 0.55 0.00 95 1003.4
20260507091554 40 240 8.0 14.0 0.00 0.55 0.00 95 1003.6
20260507090048 40 244 8.0 14.0 0.00 0.55 0.00 95 1003.7
20260507084547 40 252 8.0 16.0 0.00 0.55 0.00 95 1003.9
20260507083044 41 229 8.0 14.0 0.00 0.55 0.00 95 1004.0
20260507081543 41 248 10.0 15.0 0.00 0.55 0.00 95 1003.8
20260507080044 41 233 7.0 14.0 0.00 0.55 0.00 96 1004.0
20260507074539 41 254 6.0 12.0 0.00 0.55 0.00 96 1004.0
20260507073039 41 227 8.0 15.0 0.00 0.55 0.00 96 1004.1
20260507071539 41 242 9.0 17.0 0.00 0.55 0.00 96 1003.9
20260507070036 41 259 8.0 16.0 0.00 0.55 0.00 97 1003.9
20260507064534 41 248 8.0 17.0 0.00 0.55 0.00 97 1003.9
20260507063042 41 238 9.0 15.0 0.00 0.55 0.00 97 1004.0
20260507061533 41 244 7.0 14.0 0.00 0.55 0.00 97 1004.1
20260507060046 41 237 10.0 16.0 0.00 0.55 0.00 97 1004.1
20260507054538 42 246 9.0 14.0 0.00 0.55 0.00 97 1004.3
20260507053028 42 264 8.0 19.0 0.00 0.55 0.00 97 1004.4
20260507051526 42 258 9.0 15.0 0.00 0.55 0.00 97 1004.5
20260507050024 42 236 7.0 14.0 0.00 0.55 0.00 97 1004.4
20260507044540 42 272 5.0 12.0 0.00 0.55 0.00 97 1004.6
20260507043017 42 254 8.0 11.0 0.00 0.55 0.00 97 1004.6
20260507041514 42 240 5.0 14.0 0.00 0.55 0.00 97 1004.6
20260507040011 42 248 8.0 15.0 0.00 0.55 0.00 97 1005.2
20260507034509 42 238 8.0 14.0 0.00 0.55 0.55 97 1005.3
20260507033008 42 253 6.0 10.0 0.00 0.55 0.55 97 1005.3
20260507031506 42 236 6.0 11.0 0.00 0.55 0.55 97 1005.5
20260507030005 42 252 6.0 11.0 0.00 0.55 0.55 97 1005.4